Weather Roundup
Issued by NWS

Home | Current Version | Previous Version | Text Only | Print | Product List | Glossary On
Versions: 1 2 3 4 5 6 7 8 9 10 11 12 13 14 15 16 17 18 19 20 21 22 23 24 25 26 27 28 29 30 31 32 33 34 35 36 37 38 39 40 41 42 43 44 45 46 47 48 49 50
377
NZUS93 KARX 011010
HRRWXR

CURRENT HOURLY OBSERVATIONS ACROSS
MUCH OF THE UPPER MISSISSIPPI VALLEY
NATIONAL WEATHER SERVICE LA CROSSE WI
500 AM CDT SUN MAY 01 2016


...SOUTHEAST MINNESOTA...


CITY           SKY/WX    TMP DP  RH WIND       PRES   REMARKS
ROCHESTER      CLOUDY    42  40  92 NE10      30.06S
ROCHESTER/MAYO CLOUDY    44  40  86 N6        30.07S
WINONA         CLOUDY    43  41  93 N3        30.08S
AUSTIN         CLOUDY    43  37  81 NE9       30.05S
ALBERT LEA     CLOUDY    43  43 100 NE9       30.06S
DODGE CENTER   LGT RAIN  41  41 100 N6        30.07S
PRESTON        CLOUDY    42  37  84 NE12      30.05S
OWATONNA       CLOUDY    43  39  87 N8        30.08F
FARIBAULT      CLOUDY    43  37  81 N6        30.10S
$$

...ELSEWHERE IN MINNESOTA...


CITY           SKY/WX    TMP DP  RH WIND       PRES   REMARKS
MINNEAPOLIS    CLOUDY    43  32  65 N9        30.13S
INTNL FALLS    CLEAR     32  27  81 E5        30.28R WCI  27
DULUTH         CLEAR     34  27  75 N3        30.22R
RED WING       CLOUDY    46  34  61 NE7       30.10R
REDWOOD FALLS  CLOUDY    41  30  65 N7        30.14R
MANKATO        CLOUDY    43  36  75 N9        30.10S
WORTHINGTON    CLOUDY    41  39  93 NE17      30.09R
FAIRMONT       CLOUDY    43  36  75 NE12      30.08R
$$

...SOUTHWEST WISCONSIN...


CITY           SKY/WX    TMP DP  RH WIND       PRES   REMARKS
LA CROSSE      CLOUDY    46  37  71 NE7       30.06S
PRAIRIE DU CHI CLOUDY    45  37  73 NE8       30.01S
BOSCOBEL       CLOUDY    46  38  73 NE6       30.02R
LONE ROCK      CLOUDY    45  37  73 NE9G21    30.01S
PLATTEVILLE    CLOUDY    43  42  97 NE12G17   29.97R
FORT MC COY    CLOUDY    44  37  75 NE3       30.07S
CAMP DOUGLAS   CLOUDY    44  42  93 NE10      30.06S
MAUSTON-NEW LI CLOUDY    44  36  73 NE8       30.05S
VIROQUA        CLOUDY    42  38  84 NE14      30.02F
WIS DELLS      CLOUDY    42  36  78 NE12      30.02S
$$

...ELSEWHERE IN WISCONSIN...


CITY           SKY/WX    TMP DP  RH WIND       PRES   REMARKS
MILWAUKEE      LGT RAIN  42  40  92 NE16      29.98S FOG
MADISON        CLOUDY    42  39  89 NE14      29.99F
GREEN BAY      LGT RAIN  43  38  82 N9        30.07R
EAU CLAIRE     CLOUDY    44  31  60 NE10      30.11R
BLACK RVR FLS  CLOUDY    44  37  77 N3        30.08R
MEDFORD        CLOUDY    39  33  81 NE9       30.10R WCI  32
WAUSAU         CLOUDY    45  32  60 N5        30.08R
WIS RAPIDS     CLOUDY    45  30  55 NE6       30.08S
MARSHFIELD     CLOUDY    44  31  60 NE8       30.07S
RICE LAKE      CLOUDY    40  33  76 N7        30.16R WCI  35
$$

...NORTHEAST IOWA...


CITY           SKY/WX    TMP DP  RH WIND       PRES   REMARKS
WATERLOO       CLOUDY    43  40  89 NE13      29.99R
DUBUQUE        CLOUDY    44  42  93 NE15      29.97R FOG
DECORAH        CLOUDY    43  39  87 VRB7G16   30.01S
MASON CITY     CLOUDY    43  40  89 NE16      30.04S
CHARLES CITY   CLOUDY    45  41  87 NE16G23   30.02R
OELWEIN        CLOUDY    43  43 100 NE16      30.00R
$$

...ELSEWHERE IN IOWA...


CITY           SKY/WX    TMP DP  RH WIND       PRES   REMARKS
DES MOINES     LGT RAIN  45  42  89 E7        29.96R FOG
IOWA CITY      CLOUDY    45  44  97 NE8       29.96R
FORT DODGE     CLOUDY    43  37  81 NE13      30.01R
MARSHALLTOWN   CLOUDY    44  43  96 NE14      29.96S FOG
CEDAR RAPIDS   CLOUDY    44  44 100 NE10      29.95R FOG
$$

...NORTHERN ILLINOIS...


CITY           SKY/WX    TMP DP  RH WIND       PRES   REMARKS
CHICAGO-OHARE  CLOUDY    44  43  96 NE14      29.91F FOG
CHICAGO-MIDWAY CLOUDY    47  44  90 NE10      29.91R FOG
MOLINE         CLOUDY    47  45  93 NE8       29.93R FOG
ROCKFORD       CLOUDY    46  44  93 NE13      29.97R
PEORIA         FOG       48  47  96 NE7       29.90R VSB 1
$$

NOTE: "FAIR" INDICATES FEW OR NO CLOUDS BELOW 12,000 FEET WITH NO
SIGNIFICANT WEATHER AND/OR OBSTRUCTIONS TO VISIBILITY. WIND
SPEEDS ARE IN MILES-PER-HOUR.




USA.gov is the U.S. government's official web portal to all federal, state and local government web resources and services.